www.pogodaiklimat.ru

Погода и климат >> Архив погоды >> Филиппины >> Мактан


ПОГОДА в Мактане

  • Прогноз погоды в Мактане
  • Монитор погоды в Мактане

АРХИВ ПОГОДЫ в Мактане

Время (UTC), дата Ветер
(напр.,м/с)
 
Видим.   Явления Облачность Т
(С)
Тd
(С)
f
(%)
Тe
(С)
Тes
(С)
Комфортность P
(гПа)
Po
(гПа)
Тmin
(С)
Tmax
(С)
R
(мм)
R24
(мм)
S
(см)
12 10.08 ЮЗ 2 10 км 3/1 600 м
[Cu med, cong Ci fib]
+28.8 +25.1 80 +42 +42 опасность
перегрева
1009.3 1006.5 +33.5
15 10.08 З 3 10 км 8/1 600 м
[Cu med, cong Ac trans]
+28.9 +20.8 62 +36 +36 очень
душно
1010.0 1007.2
18 10.08 ЮЗ 2 10 км 3/1 600 м
[Cu med, cong Ci fib]
+28.1 +23.0 74 +38 +38 очень
душно
1008.6 1005.8
21 10.08 Ю 2 10 км 5/1 600 м
[Cu med, cong Ci fib]
+27.0 +22.8 78 +36 +36 очень
душно
1008.7 1005.9
00 11.08 ЮЗ 4 10 км 6/1 600 м
[Cu med, cong Ci fib]
+29.6 +24.0 72 +41 +45 опасность
перегрева
1010.4 1007.6 +26.2
03 11.08 ЮЗ 4 10 км 8/1 600 м
[Cu med, cong Ci sp]
+32.2 +22.4 56 +41 +52 опасность
перегрева
1008.8 1006.0
06 11.08 ЮЗ 6 10 км 6/3 600 м
[Cu med, cong Ci fib]
+33.0 +22.0 52 +41 +45 опасность
перегрева
1007.3 1003.5
09 11.08 ЮЗ 6 10 км 6/3 600 м
[Cu med, cong Ac trans Ci fib]
+32.6 +22.2 54 +41 +42 опасность
перегрева
1006.6 1003.8
12 11.08 ЮЗ 3 10 км 4/3 600 м
[Cu med, cong Ac trans]
+29.7 +25.7 79 +44 +44 опасность
перегрева
1008.5 1005.7 +33.4
15 11.08 З 6 10 км 10/3 600 м
[Cu med, cong Cs]
+28.6 +22.6 70 +38 +38 очень
душно
1009.2 1006.4
18 11.08 ЮЗ 5 10 км 10/3 600 м
[Cu med, cong Cs]
+27.5 +21.3 69 +35 +35 очень
душно
1008.0 1005.2
21 11.08 З 4 10 км 9/3 600 м
[Cu med, cong Cs]
+26.6 +22.2 77 +35 +35 очень
душно
1008.0 1005.2
00 12.08 ЮЗ 5 10 км 8/1 600 м
[Cu med, cong Ci fib]
+29.8 +22.8 66 +39 +42 очень
душно
1009.3 1006.5 +26.4
03 12.08 ЮЗ 6 10 км 8/3 600 м
[Cu med, cong Ci fib]
+32.6 +22.8 56 +42 +47 опасность
перегрева
1008.6 1005.8
06 12.08 ЮЗ 5 10 км 8/3 600 м
[Cu med, cong Ci sp]
+32.8 +22.3 54 +42 +47 опасность
перегрева
1006.8 1004.0
09 12.08 ЮЗ 5 10 км 9/3 600 м
[Cu med, cong Ci sp]
+32.2 +23.2 59 +43 +43 опасность
перегрева
1007.3 1004.5
12 12.08 З 5 10 км 1/1 600 м
[Cu med, cong]
+30.0 +20.9 58 +37 +37 очень
душно
1009.1 1006.3 +33.4
15 12.08 ЮЗ 3 10 км 5/1 600 м
[Cu med, cong Ci fib]
+29.0 +22.5 68 +38 +38 очень
душно
1010.9 1008.1
18 12.08 ЮЗ 5 10 км 10/3 600 м
[Cu med, cong Ac trans Cs]
+27.6 +22.7 75 +37 +37 очень
душно
1009.1 1006.3
21 12.08 З 4 10 км 10/3 600 м
[Cu med, cong Cs]
+26.8 +23.0 80 +36 +36 очень
душно
1006.8 1006.0
00 13.08 ЮЗ 5 10 км 10/3 600 м
[Cu med, cong Cs]
+28.6 +22.6 70 +38 +40 очень
душно
1009.7 1006.9 +26.4
03 13.08 ЮЗ 8 10 км 6/3 600 м
[Cu med, cong Ci fib]
+30.4 +23.7 67 +41 +44 опасность
перегрева
1009.2 1006.4
06 13.08 ЮЗ 8 10 км 9/3 600 м
[Cu med, cong Ci sp]
+33.0 +23.6 58 +44 +46 опасность
перегрева
1007.8 1005.0
09 13.08 ЮЗ 5 10 км 8/3 600 м
[Cu med, cong Ci sp]
+31.4 +23.6 63 +42 +43 опасность
перегрева
1008.0 1005.2
12 13.08 ЮЗ 2 10 км 3/1 600 м
[Cu med, cong Ci fib]
+29.8 +23.1 67 +40 +40 очень
душно
1010.2 1007.4 +33.4
15 13.08 ЮЗ 4 10 км 4/1 600 м
[Cu med, cong Ac trans]
+28.7 +22.6 70 +38 +38 очень
душно
1011.1 1008.3
18 13.08 ЮЗ 3 10 км 3/1 600 м
[Cu med, cong Ac trans Ci fib]
+27.7 +21.6 69 +35 +35 очень
душно
1009.7 1006.9
21 13.08 ЮЗ 3 10 км 5/1 600 м
[Cu med, cong Ci fib]
+27.0 +22.9 78 +36 +36 очень
душно
1010.0 1007.2
00 14.08 ЮЗ 6 10 км 5/3 600 м
[Cu med, cong Ci fib]
+29.5 +24.6 75 +42 +44 опасность
перегрева
1010.8 1008.0 +26.4
03 14.08 ЮЗ 7 10 км 1/1 600 м
[Cu med, cong]
+32.4 +23.2 58 +43 +48 опасность
перегрева
1009.6 1006.8
06 14.08 ЮЗ 7 10 км 4/1 600 м
[Cu med, cong Ci fib]
+33.4 +23.1 55 +44 +47 опасность
перегрева
1007.5 1004.7
09 14.08 З 4 10 км 8/3 600 м
[Cu med, cong Ci sp]
+31.0 +23.8 66 +43 +43 опасность
перегрева
1007.7 1004.9
12 14.08 ЮЗ 2 10 км 8/3 600 м
[Cu med, cong Ac trans]
+29.8 +24.5 73 +42 +42 опасность
перегрева
1010.4 1007.6 +33.6
15 14.08 З 3 10 км 8/3 600 м
[Cu med, cong Ac trans]
+28.6 +23.7 75 +39 +39 очень
душно
1011.0 1008.2
18 14.08 ЮЗ 3 10 км 5/1 600 м
[Cu med, cong Ci fib]
+27.6 +22.1 72 +36 +36 очень
душно
1010.0 1007.2
21 14.08 ЮЗ 2 10 км 1/1 600 м
[Cu hum]
+26.6 +22.5 78 +35 +35 очень
душно
1010.4 1007.6
00 15.08 ЮЗ 4 10 км 8/1 600 м
[Cu med, cong Ci sp]
+28.8 +23.7 74 +39 +43 очень
душно
1011.5 1008.7 +26.2
03 15.08 Ю 3 10 км 6/3 600 м
[Cu med, cong Ci sp]
+31.8 +23.5 62 +43 +54 опасность
перегрева
1010.4 1007.6
06 15.08 ЮЗ 7 10 км 6/3 600 м
[Cu med, cong Ac trans]
+32.0 +23.7 62 +43 +46 опасность
перегрева
1008.2 1005.4
09 15.08 ЮЗ 6 10 км 8/3 540 м
[Cb cap Ci sp]
+31.5 +23.6 63 +43 +43 опасность
перегрева
1008.1 1005.3
12 15.08 ЮЗ 3 10 км 8/3 540 м
[Cb cap Ac trans]
+29.8 +24.2 72 +42 +42 опасность
перегрева
1010.4 1007.6 +33.4
15 15.08 З 3 10 км гроза без осадков 8/3 540 м
[Cb cap Ac As]
+29.0 +24.0 74 +40 +40 очень
душно
1011.4 1008.6
18 15.08 ЮЗ 3 10 км {гроза} 4/1 600 м
[Cu med, cong Ac trans]
+27.6 +23.0 76 +37 +37 очень
душно
1010.3 1007.5
21 15.08 ЮЗ 1 10 км 8/1 600 м
[Cu med, cong Cs]
+26.6 +22.2 77 +35 +35 очень
душно
1010.2 1007.4
00 16.08 ЮЗ 3 10 км 8/3 600 м
[Cu med, cong Ci sp]
+29.8 +24.2 72 +42 +45 опасность
перегрева
1011.4 1008.6 +26.5
03 16.08 ЮЗ 5 10 км 5/3 600 м
[Cu med, cong Ci fib]
+31.5 +23.6 63 +43 +50 опасность
перегрева
1011.3 1008.5
06 16.08 ЮЗ 6 10 км 8/4 540 м
[Cb cap Ci sp]
+32.0 +23.4 60 +43 +46 опасность
перегрева
1009.2 1006.4
09 16.08 ЮЗ 6 10 км 8/5 540 м
[Cb cap Ci sp]
+30.9 +23.5 65 +42 +42 опасность
перегрева
1009.1 1006.3
12 16.08 ЮЗ 3 10 км 3/1 540 м
[Cb cap Ac trans]
+29.3 +24.6 76 +42 +42 опасность
перегрева
1011.1 1008.3 +33.0
15 16.08 С 2 10 км 9/3 600 м
[Cu med, cong Ac As]
+28.3 +24.5 80 +40 +40 очень
душно
1012.3 1009.5
18 16.08 С 1 10 км 8/3 540 м
[Cb cap Ac trans Cs]
+27.6 +23.9 80 +38 +38 очень
душно
1011.1 1008.3
21 16.08 ЮЗ 2 10 км зарница 9/3 540 м
[Cb cap Ac As]
+27.2 +23.9 82 +37 +37 очень
душно
1010.6 1007.8
00 17.08 З 4 10 км {дождь} 8/3 540 м
[Cb cap Ac trans]
+29.4 +23.5 71 +40 +42 очень
душно
1011.8 1009.0 +26.9 0.0
03 17.08 Ю 3 10 км 5/3 600 м
[Cu med, cong Ci fib]
+32.2 +22.8 58 +42 +54 опасность
перегрева
1011.2 1008.4
06 17.08 З 3 10 км 6/4 540 м
[Cb cap Ac trans]
+33.0 +22.7 55 +43 +49 опасность
перегрева
1009.3 1006.5
09 17.08 ЮЗ 4 10 км 5/3 540 м
[Cb cap Ac trans]
+30.8 +23.6 66 +42 +42 опасность
перегрева
1008.7 1005.9

 

Местоположение метеостанции Мактан (Филиппины): широта 10.30 долгота 123.96 высота над уровнем моря 24 м.

В архиве по умолчанию представлена погода в Мактане за последнюю неделю. Архивные данные за месяц целиком и за предыдущие месяцы, начиная с января 2011 года, Вы можете получить, выбрав интересующий диапазон дат из раскрывающегося списка и нажав кнопку "Ввод!".


*Определитесь, кто Вы:
робот инопланетянин человек

Внимание! Время в таблицах - всемирное. Для получения местного времени необходимо прибавить поправку, которая равна 8 ч.

Смотрите также архив погоды в соседних городах и на ближайших метеорологических станциях:

Погода в Тагбиларане (Филиппины) (79 км)
Погода в Маасине (Филиппины) (97 км)
Погода в Думагете (Филиппины) (133 км)
Погода в Таклобане (Филиппины) (155 км)
Погода в Серигао Сити (Филиппины) (178 км)
Погода в Катбалогане (Филиппины) (193 км)
Погода в Рохасе (Филиппины) (194 км)
Погода в Дипологе (Филиппины) (201 км)
Погода в Гуиуане (Филиппины) (210 км)
Погода в Кагаян-де-Оро (Филиппины) (211 км)

Пояснения к столбцам:

Ветер - указаны скорость ветра в м/с - средняя за 10 мин, порывы в срок и между сроками (в фигурных скобках) и направление, откуда дует ветер: С - северный, СВ - северо-восточный, В - восточный, ЮВ - юго-восточный, Ю - южный, ЮЗ - юго-западный, З - западный, СЗ - северо-западный.
Видимость - горизонтальная дальность видимости в метрах или километрах. При видимости от 1 до 10 км при отсутствии осадков обычно наблюдается дымка, при ухудшении видимости до 1 км и менее - туман. В сухую погоду видимость может ухудшаться дымом, пылью или мглою.
Явления - указаны атмосферные явления, наблюдавшиеся в срок или в последний час перед сроком; фигурными скобками обозначены явления, наблюдавшиеся между сроками (за 1-3 часа до срока); квадратными скобками обозначены град или гололедные отложения с указанием их диаметра в мм.
Облачность - указаны через наклонную черту общая и нижняя облачность в баллах и высота нижней границы облаков в метрах; квадратными скобками обозначены формы облаков: Ci - перистые, Cs - перисто-слоистые, Cc - перисто-кучевые, Ac - высококучевые, As - высокослоистые, Sc - слоисто-кучевые, Ns - слоисто-дождевые, Cu - кучевые, Cb - кучево-дождевые. Подробнее классификацию облаков см. в Атласе облаков (PDF).
T - Температура воздуха - температура, измеренная на высоте 2 м над землей.
Td - Температура точки росы - температура, при понижении до которой содержащийся в воздухе водяной пар достигнет насыщения.
f - Относительная влажность воздуха - влажноcть воздуха, измеренная на высоте 2 м над землей.
Te - Эффективная температура - температура, которую ощущает одетый по сезону человек в тени. Характеристика душности погоды. При расчете учитывается влияние влажности воздуха и скорости ветра на теплоощущения человека.
Tes - Эффективная температура на солнце - температура, которую ощущает человек, с поправкой на солнечный нагрев. Характеристика знойности погоды. Зависит от высоты солнца над горизонтом, облачности и скорости ветра. Ночью, в пасмурную погоду, а также при ветре 12 м/с и более поправка равна нулю.
P - Атмосферное давление - приведенное к уровню моря атмосферное давление.
Po - Атмосферное давление - измеренное на уровне метеостанции атмосферное давление.
Tmin - Минимальная температура - минимум температуры воздуха на высоте 2 м над землей.
Tmax - Максимальная температура - максимум температуры воздуха на высоте 2 м над землей.
R - Количество осадков - Количество выпавших осадков за период времени, мм. При наведении курсора мыши на число - период времени, за который выпало указанное количество осадков.
R24 - Количество осадков - Количество выпавших осадков за 24 часа, мм.
S - Снежный покров - Высота снежного покрова, см. При наведении курсора мыши на число - состояние снежного покрова и степень покрытия местности в баллах.